Terminal Aerodrome Forecast
Issued by NWS Pittsburgh, PA

Current Version | Previous Version | Graphics & Text | Print | Product List | Glossary On
Versions: 1 2 3 4 5 6 7 8 9 10 11 12 13 14 15 16 17 18 19 20 21 22 23 24 25 26 27 28 29
000
FTUS41 KPBZ 071700
TAFPIT
TAF
KPIT 071727Z 0718/0824 22015G25KT P6SM SCT060
     FM071900 23012G22KT P6SM -SHRA VCTS BKN050CB
     FM072200 24010KT P6SM BKN040
     FM080900 20005KT P6SM BKN020=

USA.gov is the U.S. government's official web portal to all federal, state and local government web resources and services.